Weather in Zavolzhskiy

Russia / Tver Oblast     56°53′25″N   35°45′12″E
temp.,
°C
wind,
m/s
gust,
m/s
humid.,
%
clouds,
%
prec.,
mm/h
press.,
hPa
HPBL,
m
7 august, sun
sun700:00+18s34915 1.1 101657
03:00+17ssw359777 4.5 101695
06:00+18wsw3796100 1.4 1016219
09:00+18nnw3595100 2.5 1017443
12:00+17nnw2597100 3.7 1019346
15:00+16n3698100 14.2 1019431
18:00+14n3796100 2.9 1020346
21:00+13nnw2297100 2.9 102156
8 august, mon
mon800:00+12n23965 0.0 102247
03:00+10n23960 0.0 102254
06:00+10nne24945 0.0 102382
09:00+16nne247437 0.0 1023391
12:00+20ne234795 0.0 10231297
15:00+22nne224339 0.0 10221693
18:00+20ese2365100 0.0 1022312
21:00+17n1175100 0.1 102211
9 august, tue
tue900:00+16nne2369100 0.0 102262
03:00+15nne2471100 0.0 102298
06:00+12n2470100 0.0 102270
09:00+17n3560100 0.0 1022321
12:00+21n354779 0.0 10221495
15:00+23n33397 0.0 10212316
18:00+21n3557100 0.0 1021771
21:00+16nnw2469100 0.0 102294
10 august, wed
wed1000:00+15nnw2577100 0.0 1022137
03:00+13nnw269378 0.5 1022190
06:00+12nnw389896 0.8 1022322
09:00+14n479292 1.4 1022601
12:00+16nnw458358 1.5 1023718
15:00+17nnw56661 2.8 1022867
18:00+18nnw36615 0.0 10221062
21:00+13nw348317 0.0 102368
11 august, thu
thu1100:00+12nw23865 0.0 102451
03:00+11nw22825 0.0 102428
06:00+11nw24807 0.0 102587
09:00+18nnw24571 0.0 1025433
12:00+22nw34445 0.0 10251701
15:00+23wnw34395 0.0 10242095
18:00+22w24495 0.0 1023272
21:00+16w2267100 0.0 102312